Bayramaly

Turkmenistan     37˚37′03″N   62˚09′49″E
temp.,
°C
wind,
m/s
gust,
m/s
humid.,
%
clouds,
%
prec.,
mm/h
press.,
hPa
HPBL,
m
28 november, sat
sat2823:00+6˚wnw597771 0.0 1036301
02:00+5˚w3478100 0.1 1039153
05:00+2˚nnw238781 0.1 104122
08:00+2˚ne338878 0.0 104225
11:00+8˚e455555 0.0 1042655
14:00+11˚ene553515 0.0 10391079
17:00+9˚ene683957 0.0 1037584
20:00+5˚ene4752100 0.0 1037145
29 november, sun
sun2923:00+4˚ene51158100 0.0 1037257
02:00+4˚ene4105699 0.0 1036246
05:00+2˚ene485995 0.0 1035182
08:00+2˚ene466095 0.0 1035114
11:00+8˚ne564097 0.0 1035414
14:00+11˚ne552893 0.0 1032563
17:00+9˚ne463396 0.0 1031391
20:00+4˚ne235068 0.0 103224
30 november, mon
mon3023:00+4˚nne345134 0.0 103124
02:00+3˚ne345533 0.0 103038
05:00+2˚ene345748 0.0 102841
08:00+3˚ene3354100 0.0 102872
11:00+7˚ne3442100 0.0 1027267
14:00+10˚ne4431100 0.0 1024455
17:00+9˚nne453597 0.0 1023242
20:00+6˚nne344298 0.0 102480
1 december, tue
tue123:00+4˚nw234786 0.0 102524
02:00+3˚wnw344529 0.0 102562
05:00+2˚w444715 0.0 102669
08:00+1˚w34470 0.0 102740
11:00+7˚w34300 0.0 1028436
14:00+11˚w33260 0.0 1026643
17:00+9˚wsw11310 0.0 102523
20:00+4˚nne23410 0.0 102622
2 december, wed
wed223:00+4˚ne23430 0.0 102723
02:00+4˚e234425 0.0 102722
05:00+6˚ene223636 0.0 102729
08:00+6˚ne233797 0.0 102831
11:00+11˚ne232967 0.0 1028424
14:00+13˚ne332629 0.0 1025699
17:00+11˚nne453131 0.0 1024142
20:00+7˚nne444136 0.0 102565